This is the latest recevied weather packets stored in our database for station/object XE2RCS-21. If no packets are shown the sender has not sent any weather packets the latest 10 day(s).
| Time | Temp. | Humidity | Pressure | Rain* | Wind** | Luminosity | Snow |
|---|---|---|---|---|---|---|---|
| 1777838434 | 26.67° C | 58% | 1024.7 hPa | - | - | - | - |
| 1777836634 | 27.78° C | 54% | 1025.1 hPa | - | - | - | - |
| 1777827633 | 17.22° C | 100% | 1017.3 hPa | - | - | - | - |
| 1777825833 | 13.89° C | 100% | 1015.1 hPa | - | - | - | - |
| 1777813233 | 11.67° C | 100% | 1004 hPa | - | - | - | - |
| 1777806032 | 11.11° C | 100% | 1002.3 hPa | - | - | - | - |
| 1777804231 | 11.11° C | 100% | 1001.8 hPa | - | - | - | - |
| 1777800632 | 11.11° C | 100% | 1002.6 hPa | - | - | - | - |
| 1777798832 | 11.11° C | 100% | 1002.6 hPa | - | - | - | - |
| 1777797032 | 11.11° C | 100% | 1003.3 hPa | - | - | - | - |
| 1777795232 | 11.67° C | 100% | 1004.2 hPa | - | - | - | - |
| 1777793432 | 11.67° C | 100% | 1004.5 hPa | - | - | - | - |
| 1777791632 | 11.67° C | 100% | 1013.1 hPa | - | - | - | - |
| 1777789831 | 11.67° C | 100% | 1013.1 hPa | - | - | - | - |
| 1777788031 | 11.67° C | 100% | 1013.4 hPa | - | - | - | - |
| 1777786231 | 12.22° C | 100% | 1013.6 hPa | - | - | - | - |
| 1777784431 | 12.22° C | 100% | 1013.6 hPa | - | - | - | - |
| 1777782631 | 12.78° C | 100% | 1013.8 hPa | - | - | - | - |
| 1777780830 | 12.78° C | 100% | 1013.4 hPa | - | - | - | - |
| 1777779032 | 12.78° C | 100% | 1013.2 hPa | - | - | - | - |
| 1777777232 | 12.78° C | 100% | 1013.3 hPa | - | - | - | - |
| 1777775431 | 12.78° C | 100% | 1013.1 hPa | - | - | - | - |
| 1777770031 | 13.33° C | 100% | 1012.4 hPa | - | - | - | - |
| 1777768231 | 13.33° C | 100% | 1012.3 hPa | - | - | - | - |
| 1777761030 | 13.89° C | 100% | 999 hPa | - | - | - | - |
* Rain since midnight (hover to see other rain measurements)
** Current wind speed in m/s (hover to see current wind gust speed)